Location: Newark
(7.0858°N, 171.3717°E)
Time: 19:49:26
(UTC+00:00)

Tiros 1 - Pass Details

Date: 29 November 2020
Orbit: 630 x 663 km, 48.4° (Epoch: 18 January)

Event Time Altitude Azimuth Distance (km) Brightness Sun altitude
Rises 12:23:29 0° 314° (NW) 2,929 - -75.5°
Reaches altitude 10° 12:25:50 10° 310° (NW) 2,016 - -75.5°
Maximum altitude 12:30:23 57° 232° (SW) 742 - -75.4°
Drops below altitude 10° 12:34:55 10° 153° (SSE) 2,003 - -75.2°
Sets 12:37:15 0° 149° (SSE) 2,909 - -75.1°
